Port Hope, MI

8:03 PM EST on December 16, 2017 (GMT -0500)
Port Hope

Weather History for KP58 - May, 2013

Change the Weather History Date:

Friday, May 10, 2013

  Actual Average Record
Temperature  
Mean Temperature 44 °F -  
Max Temperature 50 °F 57 °F 80 °F (2005)
Min Temperature 39 °F 43 °F 39 °F (2013)
Degree Days  
Heating Degree Days 20    
Moisture  
Dew Point 39 °F    
Average Humidity 88    
Maximum Humidity 93    
Minimum Humidity 77    
Precipitation  
Precipitation 0.43 in - - ()
Sea Level Pressure  
Sea Level Pressure 29.87 in    
Wind  
Wind Speed 20 mph (NNE)    
Max Wind Speed 28 mph    
Max Gust Speed 36 mph    
Averages and records for this station are not official NWS values.
T = Trace of Precipitation, MM = Missing Value Source: NWS Daily Summary

Daily Weather History Graph

Daily Weather History Graph

Search for Another Location

Airport or City:

Trip Planner

Search our weather history database for the weather conditions in past years. The results will help you decide how hot, cold, wet, or windy it might be!

Date:

Astronomy

May. 10, 2013 Rise Set
Actual Time 6:10 AM EDT 8:45 PM EDT
Civil Twilight 5:37 AM EDT 9:18 PM EDT
Nautical Twilight 4:56 AM EDT 9:59 PM EDT
Astronomical Twilight 4:09 AM EDT 10:46 PM EDT
Moon 6:33 AM EDT (5/10) 9:34 PM EDT (5/10)
Length of Visible Light 15h 40m
Length of Day
14h 34m
New Moon, 0% of the Moon is Illuminated
May 10
New Moon
May 18
First Quarter
May 25
Full
May 31
Last Quarter
Jun 8
New

Hourly Weather History & Observations

Time (EDT) Temp. Windchill Dew Point Humidity Pressure Visibility Wind Dir Wind Speed Gust Speed Precip Events Conditions
12:51 AM 50.0 °F - 44.1 °F 80% 29.94 in - NE 15.0 mph - N/A   Unknown
1:51 AM 50.0 °F - 44.1 °F 80% 29.95 in - NE 17.3 mph - 0.01 in   Unknown
2:51 AM 48.0 °F - 43.0 °F 83% 29.91 in - NE 23.0 mph - N/A   Unknown
3:51 AM 46.9 °F - 39.9 °F 77% 29.90 in - NE 25.3 mph 35.7 mph N/A   Unknown
4:51 AM 45.0 °F 35.6 °F 39.0 °F 80% 29.88 in - NE 27.6 mph 35.7 mph N/A   Unknown
5:51 AM 45.0 °F 35.8 °F 39.0 °F 80% 29.88 in - ENE 26.5 mph 33.4 mph N/A   Unknown
6:51 AM 44.1 °F 35.4 °F 39.0 °F 82% 29.90 in - NE 21.9 mph - 0.02 in   Unknown
7:51 AM 43.0 °F 33.8 °F 39.0 °F 86% 29.89 in - NE 23.0 mph - 0.03 in   Unknown
8:51 AM 42.1 °F 31.7 °F 39.0 °F 89% 29.86 in - NE 27.6 mph 33.4 mph 0.06 in   Unknown
9:51 AM 43.0 °F 33.5 °F 39.9 °F 89% 29.86 in - NE 24.2 mph 32.2 mph 0.05 in   Unknown
10:51 AM 42.1 °F 31.9 °F 39.9 °F 92% 29.84 in - NE 26.5 mph 34.5 mph 0.07 in   Unknown
11:51 AM 42.1 °F 31.9 °F 39.9 °F 92% 29.83 in - NE 26.5 mph - 0.02 in   Unknown
12:51 PM 42.1 °F 32.3 °F 39.9 °F 92% 29.83 in - NNE 24.2 mph 32.2 mph 0.06 in   Unknown
1:51 PM 41.0 °F 31.4 °F 39.0 °F 93% 29.85 in - NNE 21.9 mph 27.6 mph 0.03 in   Unknown
2:51 PM 42.1 °F 32.6 °F 39.0 °F 89% 29.84 in - NNE 23.0 mph - 0.01 in   Unknown
3:51 PM 41.0 °F 33.5 °F 39.0 °F 93% 29.86 in - North 13.8 mph 26.5 mph 0.03 in   Unknown
4:51 PM 39.9 °F 31.4 °F 37.9 °F 93% 29.85 in - North 16.1 mph 25.3 mph 0.04 in   Unknown
5:51 PM 41.0 °F 32.2 °F 39.0 °F 93% 29.85 in - North 18.4 mph 26.5 mph N/A   Unknown
6:51 PM 41.0 °F 33.1 °F 37.9 °F 89% 29.85 in - North 15.0 mph 26.5 mph N/A   Unknown
7:51 PM 39.9 °F 32.9 °F 37.9 °F 93% 29.87 in - North 11.5 mph 26.5 mph N/A   Unknown
8:51 PM 39.9 °F 32.9 °F 37.9 °F 93% 29.88 in - North 11.5 mph 24.2 mph N/A   Unknown
9:51 PM 39.9 °F 36.7 °F 37.9 °F 93% 29.89 in - North 4.6 mph - N/A   Unknown
10:51 PM 39.9 °F 35.8 °F 37.0 °F 89% 29.90 in - North 5.8 mph - N/A   Unknown
11:51 PM 39.9 °F 35.8 °F 37.9 °F 93% 29.88 in - North 5.8 mph - N/A   Unknown